Location: Zagreb
(45.8150°N, 15.9819°E)
Time: 14:31:06
(UTC+02:00)

STARLINK-1666 - Pass Details

Date: 20 September 2020
Orbit: 379 x 380 km, 53.0° (Epoch: 20 October)

Event Time Altitude Azimuth Distance (km) Brightness Sun altitude
Exits shadow 04:33:31 30° 12° (NNE) 708 4.5 -22.2°
Drops below altitude 10° 04:35:40 10° 48° (NE) 1,389 6.7 -21.9°
Enters shadow 05:29:30 -73° 252° (WSW) 12,601 10.5 -13.1°
